Zurück zum Katalog

FENGYUN 1C DEB

AktivSSO
NORAD 30876·DEBRIS·🇨🇳 China

Gestartet May 10, 1999 von Taiyuan Satellite Launch Center

Loading…

Nächste Überflüge (nächste 24 Stunden)

TLE

AktuellSource: Space-Track

Epoche: Sep 14, 2026, 10:06 UTC

1 30876U 99025AXN 26257.42105687  .00000193  00000-0  15886-3 0  9998
2 30876  98.8396 237.4965 0066045 232.3669 281.8340 13.99379661995651

Verfolge FENGYUN 1C DEB in Echtzeit mit AllMySat

Download on the App Store